Tracking 19170 objects as of 22-May-2018
HD Live streaming from Space Station
objects crossing your sky now

SHIYAN-7 (SY-7)

Track SHIYAN-7 (SY-7) now!
10-day predictions
SHIYAN-7 (SY-7) is classified as:


NORAD ID: 39208
Int'l Code: 2013-037A
Perigee: 667.6 km
Apogee: 680.4 km
Inclination: 98.0 °
Period: 98.1 minutes
Semi major axis: 7044 km
RCS: Unknown
Launch date: July 19, 2013
Source: People's Republic of China (PRC)
Launch site: Taiyaun Space Center, China (TSC)

SHIYAN 7 is equipped with a system for testing a manipulator arm to capture other space objects.
aabbcc
Your satellite tracking list
Your tracking list is empty




NASA's NSSDC Master Catalog

Two Line Element Set (TLE):
1 39208U 13037A   18142.43049166  .00000019  00000-0  11522-4 0  9990
2 39208  97.9959 151.0035 0009116 146.1073 214.0722 14.68191797259339
Source of the keplerian elements: AFSPC